Weather History for London / Heathrow Airport, United Kingdom

Change the Weather History Date:

Thursday, November 14, 2013

  Actual Average Record
Temperature  
Mean Temperature 45 °F -  
Max Temperature 49 °F 48 °F - ()
Min Temperature 41 °F 38 °F - ()
Degree Days  
Heating Degree Days 20    
Moisture  
Dew Point 40 °F    
Average Humidity 79    
Maximum Humidity 93    
Minimum Humidity 54    
Precipitation  
Precipitation 0.00 in - - ()
Sea Level Pressure  
Sea Level Pressure 30.24 in    
Wind  
Wind Speed 11 mph ()    
Max Wind Speed 16 mph    
Max Gust Speed 30 mph    
Visibility 7.7 miles    
Events Rain    
T = Trace of Precipitation, MM = Missing Value Source: Averaged Metar Reports

Daily Weather History Graph

Daily Weather History Graph

Search for Another Location

Airport:

Trip Planner

Search our weather history database for the weather conditions in past years. The results will help you decide how hot, cold, wet, or windy it might be!

Date:

Astronomy

Nov. 14, 2013 Rise Set
Actual Time 7:18 AM GMT 4:13 PM GMT
Civil Twilight 6:41 AM GMT 4:50 PM GMT
Nautical Twilight 6:00 AM GMT 5:31 PM GMT
Astronomical Twilight 5:21 AM GMT 6:10 PM GMT
Moon 2:44 PM GMT (11/14) 3:37 AM GMT (11/14)
Length of Visible Light 10h 09m
Length of Day
8h 55m
Waxing Gibbous, 90% of the Moon is Illuminated
Nov 14
Waxing Gibbous
Nov 17
Full
Nov 25
Last Quarter
Dec 3
New
Dec 9
First Quarter

Hourly Weather History & Observations

Time (GMT) Temp. Windchill Dew Point Humidity Pressure Visibility Wind Dir Wind Speed Gust Speed Precip Events Conditions
12:00 AM 48 °F - 39 °F 62% 30.23 in 22 mi SSW 12.7 mph - -   Scattered Clouds
12:20 AM 48.2 °F - 42.8 °F 82% 30.21 in 6.2 mi SSW 11.5 mph - N/A   Scattered Clouds
12:50 AM 48.2 °F - 44.6 °F 87% 30.18 in 6.2 mi SW 12.7 mph - N/A Rain Light Rain Showers
1:20 AM 48.2 °F - 44.6 °F 87% 30.15 in 6.2 mi SW 12.7 mph - N/A   Scattered Clouds
1:50 AM 48.2 °F - 44.6 °F 87% 30.15 in 6.2 mi SW 11.5 mph - N/A   Mostly Cloudy
2:20 AM 48.2 °F - 44.6 °F 87% 30.15 in 6.2 mi WSW 13.8 mph - N/A   Mostly Cloudy
2:50 AM 48.2 °F - 44.6 °F 87% 30.15 in 6.2 mi West 13.8 mph - N/A   Scattered Clouds
3:00 AM 47 °F - 43 °F 82% 30.15 in 17 mi West 12.7 mph - - Rain Rain
3:20 AM 48.2 °F - 44.6 °F 87% 30.12 in - West 10.4 mph - N/A   Clear
3:50 AM 48.2 °F - 44.6 °F 87% 30.12 in 6.2 mi West 12.7 mph - N/A   Partly Cloudy
4:20 AM 46.4 °F 41.5 °F 44.6 °F 93% 30.12 in 6.2 mi West 10.4 mph - N/A   Mostly Cloudy
4:50 AM 46.4 °F 41.9 °F 42.8 °F 87% 30.12 in 6.2 mi West 9.2 mph - N/A   Partly Cloudy
5:20 AM 46.4 °F 41.5 °F 42.8 °F 87% 30.12 in - West 10.4 mph - N/A   Clear
5:50 AM 46.4 °F 41.1 °F 42.8 °F 87% 30.12 in - West 11.5 mph - N/A   Clear
6:00 AM 47 °F - 42 °F 75% 30.14 in 19 mi West 11.5 mph - -  
6:20 AM 46.4 °F 40.7 °F 42.8 °F 87% 30.12 in 6.2 mi West 12.7 mph - N/A   Unknown
6:50 AM 46.4 °F 40.7 °F 42.8 °F 87% 30.15 in 6.2 mi WNW 12.7 mph - N/A   Partly Cloudy
7:20 AM 46.4 °F 41.5 °F 41.0 °F 81% 30.15 in - WNW 10.4 mph - N/A   Clear
7:50 AM 44.6 °F 38.8 °F 41.0 °F 87% 30.15 in - West 11.5 mph - N/A   Clear
8:20 AM 44.6 °F 38.1 °F 41.0 °F 87% 30.15 in - West 13.8 mph - N/A   Clear
8:50 AM 46.4 °F 40.7 °F 41.0 °F 81% 30.18 in 6.2 mi WNW 12.7 mph - N/A   Partly Cloudy
9:00 AM 47 °F - 39 °F 66% 30.17 in 14 mi West 12.7 mph - -  
9:20 AM 48.2 °F - 41.0 °F 76% 30.18 in 6.2 mi WNW 13.8 mph - N/A   Partly Cloudy
9:50 AM 48.2 °F - 41.0 °F 76% 30.18 in 6.2 mi WNW 16.1 mph 27.6 mph N/A   Partly Cloudy
10:20 AM 48.2 °F - 41.0 °F 76% 30.18 in 6.2 mi WNW 16.1 mph - N/A   Partly Cloudy
10:50 AM 48.2 °F - 39.2 °F 71% 30.21 in 6.2 mi NW 16.1 mph - N/A   Scattered Clouds
11:20 AM 48.2 °F - 39.2 °F 71% 30.21 in 6.2 mi NW 15.0 mph - N/A   Scattered Clouds
11:50 AM 48.2 °F - 39.2 °F 71% 30.21 in 6.2 mi NW 12.7 mph - N/A   Scattered Clouds
12:00 PM 49 °F - 38 °F 55% 30.22 in 22 mi WNW 15.0 mph - -   Scattered Clouds
12:20 PM 48.2 °F - 39.2 °F 71% 30.21 in 6.2 mi NW 16.1 mph 29.9 mph N/A   Scattered Clouds
12:50 PM 48.2 °F - 39.2 °F 71% 30.21 in 6.2 mi NW 13.8 mph 25.3 mph N/A   Partly Cloudy
1:20 PM 50.0 °F - 39.2 °F 66% 30.21 in 6.2 mi NW 12.7 mph 26.5 mph N/A   Partly Cloudy
1:50 PM 48.2 °F - 37.4 °F 66% 30.24 in 6.2 mi NW 15.0 mph 27.6 mph N/A   Partly Cloudy
2:20 PM 46.4 °F 40.4 °F 37.4 °F 71% 30.24 in 6.2 mi NW 13.8 mph - N/A   Partly Cloudy
2:50 PM 48.2 °F - 39.2 °F 71% 30.24 in 6.2 mi NW 12.7 mph - N/A   Partly Cloudy
3:00 PM 48 °F - 37 °F 54% 30.25 in 12 mi NW 12.7 mph - -  
3:20 PM 46.4 °F 41.1 °F 39.2 °F 76% 30.24 in 6.2 mi WNW 11.5 mph - N/A   Partly Cloudy
3:50 PM 46.4 °F 40.7 °F 37.4 °F 71% 30.27 in 6.2 mi NW 12.7 mph - N/A   Partly Cloudy
4:20 PM 46.4 °F 41.1 °F 37.4 °F 71% 30.27 in 6.2 mi NW 11.5 mph - N/A   Partly Cloudy
4:50 PM 44.6 °F 40.2 °F 37.4 °F 76% 30.30 in - NW 8.1 mph - N/A   Clear
5:20 PM 44.6 °F 39.7 °F 39.2 °F 81% 30.30 in - WNW 9.2 mph - N/A   Clear
5:50 PM 42.8 °F 38.0 °F 39.2 °F 87% 30.30 in - NW 8.1 mph - N/A   Clear
6:00 PM 44 °F - 37 °F 70% 30.32 in 14 mi NW 9.2 mph - -  
6:20 PM 42.8 °F 38.0 °F 37.4 °F 81% 30.33 in - WNW 8.1 mph - N/A   Clear
6:50 PM 42.8 °F 38.0 °F 37.4 °F 81% 30.33 in - WNW 8.1 mph - N/A   Clear
7:20 PM 42.8 °F 38.0 °F 37.4 °F 81% 30.36 in - WNW 8.1 mph - N/A   Clear
7:50 PM 42.8 °F 38.0 °F 37.4 °F 81% 30.36 in - NW 8.1 mph - N/A   Clear
8:20 PM 42.8 °F 38.0 °F 37.4 °F 81% 30.39 in - NW 8.1 mph - N/A   Clear
8:50 PM 41.0 °F 36.4 °F 37.4 °F 87% 30.39 in - NW 6.9 mph - N/A   Clear
9:00 PM 42 °F - 36 °F 73% 30.40 in 12 mi NW 8.1 mph - -  
9:20 PM 41.0 °F 35.8 °F 37.4 °F 87% 30.39 in - NNW 8.1 mph - N/A   Clear
9:50 PM 41.0 °F 36.4 °F 37.4 °F 87% 30.39 in - NW 6.9 mph - N/A   Clear
10:20 PM 41.0 °F 37.1 °F 37.4 °F 87% 30.39 in - NNW 5.8 mph - N/A   Clear
10:50 PM 41.0 °F 37.1 °F 35.6 °F 81% 30.39 in - NW 5.8 mph - N/A   Clear
11:20 PM 41.0 °F 37.1 °F 35.6 °F 81% 30.42 in - NNW 5.8 mph - N/A   Clear
11:50 PM 41.0 °F 36.4 °F 35.6 °F 81% 30.42 in - NNW 6.9 mph - N/A   Clear